Location: ???????
(55.3754°N, 39.3545°E)
Time: 06:03:11
(UTC+00:00)

Cosmos 2061 Rocket - Pass Details

Date: 14 April 2026
Orbit: 965 x 1011 km, 82.9° (Epoch: 12 May)

Event Time Altitude Azimuth Distance (km) Brightness Sun altitude
Exits shadow 22:14:38 50° 220° (SW) 1,216 4.1 -24.1°
Maximum altitude 22:16:14 70° 284° (WNW) 1,027 4.0 -24.0°
Drops below altitude 10° 22:22:27 10° 9° (N) 2,719 7.4 -23.8°
Sets 22:24:59 0° 12° (NNE) 3,671 8.5 -23.7°
